Location: Hartman Creek State Park
(44.3257°N, 89.2134°W)
Time: 04:25:35
(UTC-05:00)

Terra - Visible Passes

Search period start: 27 June 2016 00:00
Search period end: 07 July 2016 00:00
Orbit: 701 x 703 km, 98.2° (Epoch: 26 June)

Date Brightness Start Highest point End Pass type
(mag) Time Alt. Az. Time Alt. Az. Time Alt. Az.
27 Jun 1.9 22:39:02 25° SSE 22:41:48 68° ENE 22:46:32 10° N visible
28 Jun 4.1 00:17:55 11° WSW 00:20:01 14° W 00:22:30 10° WNW visible
28 Jun 3.4 21:43:35 10° ESE 21:47:10 22° ENE 21:50:46 10° NNE visible
28 Jun 2.5 23:22:18 26° SSW 23:24:36 46° W 23:29:12 10° NNW visible
29 Jun 2.2 22:26:41 21° SE 22:29:37 51° ENE 22:34:15 10° N visible
30 Jun 3.8 00:05:35 14° WSW 00:07:40 18° W 00:10:58 10° NW visible
30 Jun 3.7 21:32:03 10° E 21:35:05 17° ENE 21:38:08 10° NNE visible
30 Jun 2.1 23:09:58 28° S 23:12:20 62° WSW 23:17:04 10° NNW visible
01 Jul 2.6 22:14:21 18° SE 22:17:28 39° ENE 22:21:53 10° N visible
01 Jul 3.5 23:53:14 18° SW 23:55:19 24° W 23:59:11 10° NW visible
02 Jul 3.9 21:20:45 10° E 21:23:01 13° ENE 21:25:18 10° NNE visible
02 Jul 1.8 22:57:38 29° S 23:00:06 81° WSW 23:04:54 10° NNW visible
03 Jul 2.9 22:02:01 14° ESE 22:05:19 31° ENE 22:09:29 10° N visible
03 Jul 3.1 23:40:54 22° SW 23:43:01 31° W 23:47:15 10° NNW visible
04 Jul 1.8 22:45:18 27° SSE 22:47:53 78° ENE 22:52:39 10° N visible
05 Jul 4.2 00:24:19 10° WSW 00:26:11 12° W 00:28:04 10° WNW visible
05 Jul 3.3 21:49:42 11° ESE 21:53:12 24° ENE 21:57:01 10° NNE visible
05 Jul 2.7 23:28:35 26° SSW 23:30:43 40° W 23:35:13 10° NNW visible
06 Jul 2.0 22:32:59 24° SE 22:35:41 59° ENE 22:40:23 10° N visible
